Regional Weather Roundup
Issued by NWS State College, PA

Home | Current Version | Previous Version | Text Only | Print | Product List | Glossary On
Versions: 1 2 3 4 5 6 7 8 9 10 11 12 13 14 15 16 17 18 19 20 21 22 23 24 25 26 27 28 29 30 31 32 33 34 35 36 37 38 39 40 41 42 43 44 45 46 47 48 49 50
000
ASUS41 KCTP 260603
RWRCTP

REGIONAL WEATHER ROUNDUP
NATIONAL WEATHER SERVICE STATE COLLEGE PA
200 AM EDT TUE MAY 26 2015

Note: "fair" indicates few or no clouds below 12,000 feet with no
significant weather and/or obstructions to visibility.

* = STATION THAT DOES NOT REPORT PRECIPITATION /E.G. RAIN...SNOW...ETC/
    THUNDER OR FOG.

PAZ002>004-007>009-013>016-020>023-029>032-260700-
WESTERN PENNSYLVANIA

CITY           SKY/WX    TMP DP  RH WIND       PRES   REMARKS
ERIE           CLEAR     73  60  63 SW12      30.08R
MEADVILLE      CLEAR     69  59  70 SW8       30.13S
FRANKLIN*      CLEAR     68  57  68 SW6       30.16S
NEW CASTLE     FAIR      70  63  78 CALM      30.15S
BEAVER COUNTY  NOT AVBL
BUTLER*        MOCLDY    72  61  68 W5        30.17F
PITTSBURGH INT CLOUDY    73  61  65 SW5       30.15S
PITTSBURGH     CLOUDY    71  58  63 S6        30.16R
INDIANA*       CLOUDY    70  63  78 SW5       30.21R
LATROBE        MOCLDY    68  63  83 CALM      30.19R
WASHINGTON CO* CLOUDY    63  61  94 CALM      30.18S
$$

PAZ004>006-010>012-017>019-024>028-033>037-041-042-045-046-049>053-260700-
CENTRAL PENNSYLVANIA

CITY           SKY/WX    TMP DP  RH WIND       PRES   REMARKS
BRADFORD       CLOUDY    70  58  65 W8        30.16R
DUBOIS         CLOUDY    70  61  73 SW5       30.16S
CLEARFIELD     LGT RAIN  67  59  75 CALM      30.18R
JOHNSTOWN      CLOUDY    69  56  62 SW5       30.21R
ALTOONA        MOCLDY    65  58  78 S6        30.19S
STATE COLLEGE  CLOUDY    69  59  70 SW5       30.17R
WILLIAMSPORT   MOCLDY    72  58  61 NE5       30.13R
SELINSGROVE    PTCLDY    70  58  65 W3        30.16R
FT INDIANTOWN  CLEAR     61  60  96 CALM      30.18F
CAPITAL CITY   CLEAR     68  59  73 VRB3      30.17S
HARRISBURG     PTCLDY    69  61  75 S8        30.17S
YORK           CLEAR     67  59  75 CALM      30.18S
$$

PAZ038>040-043-044-047-048-054-055-060>062-067>071-260700-
EASTERN PENNSYLVANIA

CITY           SKY/WX    TMP DP  RH WIND       PRES   REMARKS
SCRANTON       PTCLDY    71  57  61 SW5       30.17R
MOUNT POCONO   CLEAR     63  57  81 SW9       30.21S HAZE
ALLENTOWN      CLEAR     70  58  65 SW10      30.18S
QUAKERTOWN*    CLEAR     66  57  72 SW6       30.21S
READING        CLEAR     68  58  70 S6        30.18S
LANCASTER      CLEAR     66  59  78 S7        30.19S
COATESVILLE    CLEAR     64  59  82 SW3       30.22S
POTTSTOWN      CLEAR     67  57  70 S3        30.21F
BLUE BELL      CLEAR     68  55  64 SW5       30.20S
DOYLESTOWN     CLEAR     65  57  75 S5        30.19F
WILLOW GROVE   NOT AVBL
NORTH PHILA    CLEAR     70  51  51 SW10      30.21F
PHILADELPHIA   CLEAR     69  53  56 SW8       30.21F
$$


USA.gov is the U.S. government's official web portal to all federal, state and local government web resources and services.